| time (UTC) | temp C | wind direction | speed KPH | gust KPH | rain 1hr cm | rain 24hr cm | rain mn cm | humidity % | barometer mb |
| 20260506002744 | 10 | 35 | 6.4 | 14.5 | 0.00 | 0.10 | 0.00 | 75 | 1008.2 |
| 20260506001741 | 10 | 18 | 4.8 | 12.9 | 0.00 | 0.13 | 0.00 | 76 | 1008.2 |
| 20260506000742 | 10 | 24 | 4.8 | 12.9 | 0.00 | 0.13 | 0.00 | 76 | 1008.2 |
| 20260506000241 | 10 | 47 | 4.8 | 12.9 | 0.00 | 0.15 | 0.00 | 76 | 1008.3 |
| 20260505235741 | 10 | 24 | 6.4 | 12.9 | 0.00 | 0.15 | 0.00 | 76 | 1008.4 |
| 20260505235240 | 10 | 5 | 6.4 | 12.9 | 0.00 | 0.15 | 0.00 | 76 | 1008.4 |
| 20260505234741 | 10 | 47 | 6.4 | 12.9 | 0.00 | 0.20 | 0.00 | 77 | 1008.4 |
| 20260505234240 | 11 | 23 | 6.4 | 12.9 | 0.00 | 0.23 | 0.00 | 77 | 1008.5 |
| 20260505233738 | 10 | 35 | 4.8 | 12.9 | 0.00 | 0.28 | 0.00 | 77 | 1008.6 |
| 20260505232736 | 11 | 16 | 4.8 | 11.3 | 0.00 | 0.33 | 0.00 | 77 | 1008.5 |
| 20260505232238 | 11 | 30 | 4.8 | 11.3 | 0.00 | 0.33 | 0.00 | 77 | 1008.6 |
| 20260505231736 | 11 | 29 | 4.8 | 11.3 | 0.00 | 0.33 | 0.00 | 77 | 1008.6 |
| 20260505231231 | 11 | 38 | 4.8 | 11.3 | 0.00 | 0.33 | 0.00 | 76 | 1008.6 |
| 20260505230724 | 11 | 22 | 3.2 | 9.7 | 0.00 | 0.36 | 0.00 | 76 | 1008.6 |
| 20260505230221 | 11 | 17 | 3.2 | 9.7 | 0.00 | 0.36 | 0.00 | 76 | 1008.7 |
| 20260505225720 | 11 | 33 | 4.8 | 12.9 | 0.00 | 0.41 | 0.00 | 76 | 1008.6 |
| 20260505225222 | 11 | 44 | 4.8 | 12.9 | 0.00 | 0.43 | 0.00 | 75 | 1008.7 |
| 20260505224721 | 11 | 50 | 3.2 | 9.7 | 0.00 | 0.46 | 0.00 | 75 | 1008.7 |
| 20260505224221 | 11 | 36 | 6.4 | 14.5 | 0.00 | 0.46 | 0.00 | 75 | 1008.7 |
| 20260505223222 | 11 | 28 | 4.8 | 11.3 | 0.00 | 0.46 | 0.00 | 76 | 1008.7 |
| 20260505222719 | 11 | 20 | 4.8 | 14.5 | 0.00 | 0.46 | 0.00 | 76 | 1008.7 |
| 20260505222218 | 11 | 57 | 6.4 | 14.5 | 0.00 | 0.46 | 0.00 | 76 | 1008.8 |
| 20260505221720 | 11 | 20 | 4.8 | 12.9 | 0.00 | 0.46 | 0.00 | 77 | 1008.8 |
| 20260505221220 | 11 | 20 | 4.8 | 12.9 | 0.00 | 0.46 | 0.00 | 77 | 1008.8 |
| 20260505220718 | 11 | 5 | 3.2 | 12.9 | 0.00 | 0.46 | 0.00 | 77 | 1008.8 |
| 20260505220219 | 11 | 13 | 3.2 | 12.9 | 0.00 | 0.46 | 0.00 | 78 | 1008.9 |
| 20260505215718 | 11 | 353 | 4.8 | 12.9 | 0.00 | 0.46 | 0.46 | 78 | 1009.0 |
| 20260505214717 | 11 | 2 | 4.8 | 11.3 | 0.00 | 0.46 | 0.46 | 79 | 1009.1 |
| 20260505214218 | 11 | 28 | 4.8 | 11.3 | 0.00 | 0.46 | 0.46 | 79 | 1009.0 |
| 20260505212700 | 11 | 22 | 3.2 | 6.4 | 0.00 | 0.46 | 0.46 | 81 | 1009.1 |
| 20260505211142 | 11 | 10 | 4.8 | 9.7 | 0.00 | 0.46 | 0.46 | 81 | 1009.2 |
| 20260505210636 | 11 | 13 | 4.8 | 11.3 | 0.00 | 0.46 | 0.46 | 81 | 1009.2 |
| 20260505210130 | 11 | 356 | 4.8 | 11.3 | 0.00 | 0.46 | 0.46 | 81 | 1009.2 |
| 20260505205623 | 11 | 359 | 3.2 | 8.0 | 0.00 | 0.46 | 0.46 | 82 | 1009.2 |
| 20260505205118 | 11 | 1 | 3.2 | 6.4 | 0.00 | 0.46 | 0.46 | 82 | 1009.2 |
| 20260505204613 | 11 | 20 | 3.2 | 9.7 | 0.00 | 0.46 | 0.46 | 82 | 1009.2 |
| 20260505204107 | 11 | 11 | 3.2 | 9.7 | 0.00 | 0.46 | 0.46 | 82 | 1009.1 |
| 20260505203056 | 11 | 14 | 3.2 | 11.3 | 0.00 | 0.46 | 0.46 | 82 | 1009.2 |
| 20260505202551 | 11 | 343 | 4.8 | 12.9 | 0.00 | 0.46 | 0.46 | 82 | 1009.2 |
| 20260505201030 | 11 | 18 | 4.8 | 11.3 | 0.00 | 0.46 | 0.46 | 82 | 1009.1 |
| 20260505200525 | 11 | 8 | 4.8 | 12.9 | 0.00 | 0.46 | 0.46 | 82 | 1009.1 |
| 20260505200018 | 11 | 17 | 4.8 | 12.9 | 0.00 | 0.46 | 0.46 | 82 | 1009.1 |
| 20260505195511 | 11 | 24 | 4.8 | 12.9 | 0.00 | 0.46 | 0.46 | 82 | 1009.1 |
| 20260505195006 | 11 | 24 | 4.8 | 12.9 | 0.00 | 0.46 | 0.46 | 82 | 1009.1 |
| 20260505194500 | 11 | 5 | 4.8 | 12.9 | 0.00 | 0.46 | 0.46 | 82 | 1009.1 |
| 20260505193449 | 11 | 346 | 1.6 | 6.4 | 0.00 | 0.46 | 0.46 | 82 | 1009.1 |
| 20260505192943 | 11 | 1 | 1.6 | 6.4 | 0.00 | 0.46 | 0.46 | 82 | 1009.1 |
| 20260505192436 | 11 | 344 | 3.2 | 11.3 | 0.00 | 0.46 | 0.46 | 82 | 1009.0 |
| 20260505191930 | 11 | 343 | 4.8 | 11.3 | 0.00 | 0.46 | 0.46 | 82 | 1009.0 |
| 20260505190927 | 11 | 5 | 6.4 | 12.9 | 0.00 | 0.46 | 0.46 | 81 | 1008.9 |
| 20260505190411 | 11 | 349 | 6.4 | 12.9 | 0.00 | 0.46 | 0.46 | 81 | 1008.8 |
| 20260505185406 | 11 | 3 | 6.4 | 14.5 | 0.00 | 0.46 | 0.46 | 81 | 1008.8 |
| 20260505184908 | 11 | 3 | 6.4 | 12.9 | 0.00 | 0.46 | 0.46 | 81 | 1008.9 |
| 20260505184406 | 11 | 342 | 6.4 | 14.5 | 0.00 | 0.46 | 0.46 | 81 | 1008.8 |
| 20260505183906 | 11 | 334 | 6.4 | 16.1 | 0.00 | 0.46 | 0.46 | 81 | 1008.8 |
| 20260505183405 | 11 | 4 | 8.0 | 19.3 | 0.00 | 0.46 | 0.46 | 81 | 1008.8 |
| 20260505182905 | 11 | 346 | 6.4 | 19.3 | 0.00 | 0.46 | 0.46 | 81 | 1008.9 |
| 20260505182405 | 11 | 359 | 6.4 | 17.7 | 0.00 | 0.46 | 0.46 | 81 | 1008.8 |
| 20260505181902 | 11 | 11 | 6.4 | 17.7 | 0.00 | 0.46 | 0.46 | 81 | 1008.8 |
| 20260505181403 | 11 | 314 | 6.4 | 17.7 | 0.00 | 0.46 | 0.46 | 81 | 1008.8 |
| 20260505180400 | 11 | 334 | 6.4 | 17.7 | 0.00 | 0.46 | 0.46 | 81 | 1008.8 |
| 20260505175900 | 11 | 7 | 8.0 | 16.1 | 0.00 | 0.46 | 0.46 | 80 | 1008.9 |
| 20260505175358 | 11 | 353 | 8.0 | 19.3 | 0.00 | 0.46 | 0.46 | 80 | 1008.9 |
| 20260505174859 | 11 | 1 | 8.0 | 19.3 | 0.00 | 0.46 | 0.46 | 80 | 1008.9 |
| 20260505174357 | 11 | 344 | 6.4 | 16.1 | 0.00 | 0.46 | 0.46 | 80 | 1009.0 |
| 20260505173856 | 11 | 11 | 4.8 | 16.1 | 0.00 | 0.46 | 0.46 | 80 | 1009.0 |
| 20260505173358 | 11 | 358 | 4.8 | 16.1 | 0.00 | 0.46 | 0.46 | 80 | 1009.0 |
| 20260505172851 | 11 | 3 | 6.4 | 16.1 | 0.00 | 0.46 | 0.46 | 80 | 1009.1 |
| 20260505172347 | 11 | 357 | 4.8 | 16.1 | 0.00 | 0.46 | 0.46 | 80 | 1009.1 |
| 20260505171849 | 11 | 345 | 4.8 | 16.1 | 0.00 | 0.46 | 0.46 | 80 | 1009.2 |
| 20260505171347 | 11 | 354 | 4.8 | 16.1 | 0.00 | 0.46 | 0.46 | 80 | 1009.2 |
| 20260505170847 | 11 | 5 | 4.8 | 14.5 | 0.00 | 0.46 | 0.46 | 80 | 1009.1 |
| 20260505170346 | 11 | 322 | 6.4 | 16.1 | 0.00 | 0.46 | 0.46 | 80 | 1009.1 |
| 20260505165846 | 11 | 345 | 6.4 | 16.1 | 0.00 | 0.46 | 0.46 | 79 | 1009.2 |
| 20260505165347 | 11 | 24 | 6.4 | 16.1 | 0.00 | 0.46 | 0.46 | 79 | 1009.2 |
| 20260505164848 | 11 | 339 | 6.4 | 20.9 | 0.00 | 0.46 | 0.46 | 79 | 1009.1 |
| 20260505164345 | 11 | 355 | 9.7 | 20.9 | 0.00 | 0.46 | 0.46 | 79 | 1009.3 |
| 20260505163847 | 11 | 28 | 9.7 | 19.3 | 0.00 | 0.46 | 0.46 | 79 | 1009.2 |
| 20260505163342 | 11 | 351 | 8.0 | 17.7 | 0.00 | 0.46 | 0.46 | 79 | 1009.2 |
| 20260505162841 | 12 | 329 | 8.0 | 19.3 | 0.00 | 0.46 | 0.46 | 78 | 1009.2 |
| 20260505162343 | 12 | 339 | 9.7 | 19.3 | 0.00 | 0.46 | 0.46 | 77 | 1009.2 |
| 20260505161842 | 12 | 9 | 11.3 | 24.1 | 0.00 | 0.46 | 0.46 | 77 | 1009.3 |
| 20260505160344 | 12 | 21 | 6.4 | 14.5 | 0.00 | 0.46 | 0.46 | 75 | 1009.2 |
| 20260505153342 | 12 | 334 | 8.0 | 16.1 | 0.00 | 0.46 | 0.46 | 74 | 1009.5 |
| 20260505152842 | 12 | 350 | 8.0 | 16.1 | 0.00 | 0.46 | 0.46 | 73 | 1009.5 |
| 20260505152342 | 12 | 354 | 6.4 | 16.1 | 0.00 | 0.46 | 0.46 | 73 | 1009.6 |
| 20260505151839 | 12 | 10 | 6.4 | 17.7 | 0.00 | 0.46 | 0.46 | 73 | 1009.7 |
| 20260505150838 | 12 | 10 | 6.4 | 17.7 | 0.00 | 0.46 | 0.46 | 74 | 1009.7 |
| 20260505150338 | 12 | 10 | 4.8 | 11.3 | 0.00 | 0.46 | 0.46 | 74 | 1009.7 |
| 20260505140247 | 12 | 37 | 4.8 | 12.9 | 0.00 | 0.46 | 0.46 | 73 | 1010.0 |
| 20260505130143 | 12 | 54 | 3.2 | 8.0 | 0.00 | 0.46 | 0.46 | 74 | 1010.3 |
| 20260505124112 | 12 | 65 | 3.2 | 11.3 | 0.00 | 0.46 | 0.46 | 75 | 1010.5 |
| 20260505123605 | 11 | 35 | 3.2 | 11.3 | 0.00 | 0.46 | 0.46 | 75 | 1010.6 |
| 20260505122555 | 11 | 94 | 3.2 | 11.3 | 0.00 | 0.46 | 0.46 | 75 | 1010.6 |
| 20260505122055 | 11 | 94 | 3.2 | 11.3 | 0.00 | 0.46 | 0.46 | 75 | 1010.6 |
| 20260505121554 | 11 | 49 | 3.2 | 11.3 | 0.00 | 0.46 | 0.46 | 75 | 1010.6 |
| 20260505121054 | 11 | 48 | 4.8 | 12.9 | 0.00 | 0.46 | 0.46 | 74 | 1010.6 |
| 20260505120553 | 11 | 65 | 4.8 | 12.9 | 0.00 | 0.46 | 0.46 | 74 | 1010.6 |
| 20260505120051 | 11 | 50 | 3.2 | 11.3 | 0.00 | 0.46 | 0.46 | 75 | 1010.6 |
| 20260505115552 | 11 | 77 | 4.8 | 16.1 | 0.00 | 0.46 | 0.46 | 75 | 1010.6 |
| 20260505115053 | 11 | 66 | 6.4 | 16.1 | 0.00 | 0.46 | 0.46 | 75 | 1010.7 |
| 20260505114552 | 11 | 32 | 6.4 | 14.5 | 0.00 | 0.46 | 0.46 | 75 | 1010.7 |
| 20260505114053 | 11 | 49 | 6.4 | 14.5 | 0.00 | 0.46 | 0.46 | 75 | 1010.8 |
| 20260505113549 | 11 | 45 | 6.4 | 14.5 | 0.00 | 0.46 | 0.46 | 75 | 1010.8 |
| 20260505113059 | 10 | 47 | 4.8 | 14.5 | 0.00 | 0.46 | 0.46 | 76 | 1010.7 |
| 20260505112550 | 10 | 52 | 6.4 | 17.7 | 0.00 | 0.46 | 0.46 | 76 | 1010.7 |
| 20260505112050 | 10 | 28 | 8.0 | 17.7 | 0.00 | 0.46 | 0.46 | 76 | 1010.8 |
| 20260505111551 | 10 | 32 | 6.4 | 12.9 | 0.00 | 0.46 | 0.46 | 76 | 1010.9 |
| 20260505102045 | 10 | 8 | 3.2 | 9.7 | 0.00 | 0.46 | 0.46 | 77 | 1011.2 |
| 20260505101048 | 10 | 41 | 6.4 | 12.9 | 0.00 | 0.46 | 0.46 | 78 | 1011.3 |
| 20260505100546 | 10 | 44 | 6.4 | 14.5 | 0.00 | 0.46 | 0.46 | 78 | 1011.2 |
| 20260505100047 | 10 | 46 | 4.8 | 14.5 | 0.00 | 0.46 | 0.46 | 78 | 1011.3 |
| 20260505095546 | 10 | 37 | 4.8 | 12.9 | 0.00 | 0.46 | 0.46 | 80 | 1011.3 |
| 20260505095046 | 10 | 35 | 6.4 | 14.5 | 0.00 | 0.46 | 0.46 | 79 | 1011.3 |
| 20260505094046 | 9 | 2 | 8.0 | 16.1 | 0.00 | 0.46 | 0.46 | 80 | 1011.3 |
| 20260505093546 | 9 | 33 | 4.8 | 12.9 | 0.00 | 0.46 | 0.46 | 81 | 1011.3 |
| 20260505092545 | 9 | 42 | 6.4 | 14.5 | 0.00 | 0.46 | 0.46 | 81 | 1011.4 |
| 20260505091545 | 9 | 36 | 4.8 | 12.9 | 0.00 | 0.46 | 0.46 | 82 | 1011.5 |
| 20260505091047 | 9 | 37 | 6.4 | 14.5 | 0.00 | 0.46 | 0.46 | 82 | 1011.5 |
| 20260505090545 | 9 | 45 | 8.0 | 14.5 | 0.00 | 0.46 | 0.46 | 82 | 1011.5 |
| 20260505090053 | 8 | 15 | 6.4 | 16.1 | 0.00 | 0.46 | 0.46 | 83 | 1011.4 |
| 20260505085544 | 8 | 35 | 6.4 | 16.1 | 0.00 | 0.46 | 0.46 | 84 | 1011.4 |
| 20260505085044 | 8 | 18 | 4.8 | 14.5 | 0.00 | 0.46 | 0.46 | 84 | 1011.4 |
| 20260505084538 | 8 | 15 | 6.4 | 12.9 | 0.00 | 0.46 | 0.46 | 84 | 1011.5 |
| 20260505084040 | 8 | 43 | 4.8 | 14.5 | 0.00 | 0.46 | 0.46 | 84 | 1011.5 |
| 20260505083539 | 8 | 343 | 4.8 | 14.5 | 0.00 | 0.46 | 0.46 | 85 | 1011.5 |
| 20260505083040 | 8 | 39 | 6.4 | 12.9 | 0.00 | 0.46 | 0.46 | 84 | 1011.6 |
| 20260505082538 | 8 | 37 | 4.8 | 12.9 | 0.00 | 0.46 | 0.46 | 84 | 1011.5 |
| 20260505082034 | 8 | 15 | 4.8 | 12.9 | 0.00 | 0.46 | 0.46 | 84 | 1011.5 |
| 20260505081537 | 8 | 51 | 6.4 | 12.9 | 0.00 | 0.46 | 0.46 | 84 | 1011.5 |
| 20260505081030 | 8 | 21 | 6.4 | 17.7 | 0.00 | 0.46 | 0.46 | 84 | 1011.5 |
| 20260505080524 | 8 | 35 | 8.0 | 17.7 | 0.00 | 0.46 | 0.46 | 84 | 1011.6 |
| 20260505080018 | 8 | 30 | 6.4 | 16.1 | 0.00 | 0.46 | 0.46 | 85 | 1011.6 |
| 20260505075512 | 8 | 44 | 8.0 | 16.1 | 0.00 | 0.46 | 0.46 | 85 | 1011.6 |
| 20260505075005 | 8 | 359 | 6.4 | 14.5 | 0.00 | 0.46 | 0.46 | 85 | 1011.7 |
| 20260505074500 | 8 | 35 | 4.8 | 14.5 | 0.00 | 0.46 | 0.46 | 87 | 1011.7 |
| 20260505073954 | 8 | 42 | 4.8 | 12.9 | 0.00 | 0.46 | 0.46 | 87 | 1011.7 |
| 20260505073448 | 8 | 47 | 6.4 | 12.9 | 0.00 | 0.46 | 0.46 | 87 | 1011.7 |
| 20260505072941 | 8 | 28 | 8.0 | 16.1 | 0.00 | 0.46 | 0.46 | 86 | 1011.6 |
| 20260505072435 | 8 | 33 | 9.7 | 19.3 | 0.00 | 0.46 | 0.46 | 86 | 1011.6 |
| 20260505071930 | 8 | 33 | 6.4 | 19.3 | 0.00 | 0.46 | 0.46 | 85 | 1011.6 |
| 20260505070918 | 8 | 351 | 8.0 | 14.5 | 0.00 | 0.46 | 0.46 | 86 | 1011.5 |
| 20260505070412 | 8 | 16 | 4.8 | 14.5 | 0.00 | 0.46 | 0.46 | 87 | 1011.5 |
| 20260505065400 | 8 | 33 | 3.2 | 12.9 | 0.00 | 0.46 | 0.46 | 88 | 1011.5 |
| 20260505064855 | 8 | 33 | 4.8 | 14.5 | 0.00 | 0.46 | 0.46 | 88 | 1011.5 |
| 20260505064349 | 8 | 33 | 6.4 | 14.5 | 0.00 | 0.46 | 0.46 | 87 | 1011.6 |
| 20260505063842 | 8 | 55 | 8.0 | 14.5 | 0.00 | 0.46 | 0.46 | 88 | 1011.6 |
| 20260505063336 | 8 | 14 | 8.0 | 14.5 | 0.00 | 0.46 | 0.46 | 88 | 1011.5 |
| 20260505062324 | 8 | 34 | 6.4 | 14.5 | 0.00 | 0.46 | 0.46 | 88 | 1011.5 |
| 20260505061818 | 8 | 15 | 8.0 | 14.5 | 0.00 | 0.46 | 0.46 | 88 | 1011.5 |
| 20260505061312 | 8 | 357 | 8.0 | 16.1 | 0.00 | 0.46 | 0.46 | 88 | 1011.5 |
| 20260505060300 | 8 | 24 | 6.4 | 12.9 | 0.00 | 0.46 | 0.46 | 89 | 1011.5 |
| 20260505055755 | 8 | 7 | 6.4 | 16.1 | 0.00 | 0.46 | 0.46 | 88 | 1011.5 |
| 20260505055248 | 8 | 31 | 6.4 | 16.1 | 0.00 | 0.46 | 0.46 | 88 | 1011.5 |
| 20260505054742 | 8 | 359 | 4.8 | 12.9 | 0.00 | 0.46 | 0.46 | 89 | 1011.5 |
| 20260505054237 | 8 | 29 | 4.8 | 12.9 | 0.00 | 0.46 | 0.46 | 89 | 1011.5 |
| 20260505053731 | 8 | 30 | 4.8 | 12.9 | 0.00 | 0.46 | 0.46 | 89 | 1011.5 |
| 20260505053224 | 8 | 20 | 4.8 | 11.3 | 0.00 | 0.46 | 0.46 | 89 | 1011.5 |
| 20260505052719 | 8 | 35 | 4.8 | 11.3 | 0.00 | 0.46 | 0.46 | 89 | 1011.4 |
| 20260505052213 | 8 | 10 | 4.8 | 12.9 | 0.00 | 0.46 | 0.46 | 89 | 1011.4 |
| 20260505051707 | 8 | 36 | 4.8 | 12.9 | 0.00 | 0.46 | 0.46 | 89 | 1011.5 |
| 20260505050702 | 8 | 32 | 4.8 | 9.7 | 0.00 | 0.46 | 0.46 | 89 | 1011.3 |
| 20260505050151 | 8 | 3 | 4.8 | 11.3 | 0.00 | 0.46 | 0.46 | 89 | 1011.4 |
| 20260505041629 | 8 | 0 | 4.8 | 12.9 | 0.00 | 0.46 | 0.46 | 89 | 1011.4 |
| 20260505041128 | 8 | 19 | 4.8 | 11.3 | 0.00 | 0.46 | 0.46 | 89 | 1011.5 |
| 20260505040628 | 8 | 29 | 4.8 | 11.3 | 0.00 | 0.46 | 0.46 | 89 | 1011.5 |
| 20260505040129 | 8 | 9 | 3.2 | 9.7 | 0.00 | 0.46 | 0.46 | 89 | 1011.5 |
| 20260505035626 | 8 | 28 | 3.2 | 12.9 | 0.00 | 0.46 | 0.46 | 89 | 1011.5 |
| 20260505035127 | 8 | 354 | 4.8 | 14.5 | 0.00 | 0.46 | 0.46 | 89 | 1011.5 |
| 20260505034627 | 8 | 358 | 4.8 | 14.5 | 0.03 | 0.46 | 0.46 | 89 | 1011.5 |
| 20260505034125 | 8 | 27 | 3.2 | 11.3 | 0.03 | 0.46 | 0.46 | 89 | 1011.4 |
| 20260505033629 | 8 | 10 | 3.2 | 14.5 | 0.03 | 0.46 | 0.46 | 90 | 1011.4 |
| 20260505033127 | 8 | 0 | 4.8 | 14.5 | 0.03 | 0.46 | 0.46 | 90 | 1011.5 |
| 20260505032125 | 8 | 349 | 6.4 | 14.5 | 0.03 | 0.46 | 0.46 | 90 | 1011.5 |
| 20260505031626 | 8 | 359 | 4.8 | 14.5 | 0.05 | 0.46 | 0.46 | 90 | 1011.5 |
| 20260505031125 | 8 | 3 | 4.8 | 12.9 | 0.05 | 0.46 | 0.46 | 90 | 1011.6 |
| 20260505030628 | 8 | 14 | 4.8 | 12.9 | 0.05 | 0.46 | 0.46 | 90 | 1011.5 |
| 20260505030128 | 8 | 18 | 4.8 | 12.9 | 0.05 | 0.46 | 0.46 | 90 | 1011.5 |
| 20260505025628 | 8 | 16 | 4.8 | 12.9 | 0.05 | 0.46 | 0.46 | 90 | 1011.6 |
| 20260505025125 | 8 | 8 | 3.2 | 12.9 | 0.08 | 0.46 | 0.46 | 90 | 1011.6 |
| 20260505024624 | 8 | 355 | 4.8 | 11.3 | 0.05 | 0.43 | 0.43 | 90 | 1011.7 |
| 20260505024125 | 8 | 359 | 6.4 | 11.3 | 0.05 | 0.43 | 0.43 | 90 | 1011.7 |
| 20260505023625 | 8 | 38 | 4.8 | 11.3 | 0.05 | 0.43 | 0.43 | 90 | 1011.7 |
| 20260505023123 | 8 | 28 | 3.2 | 11.3 | 0.05 | 0.43 | 0.43 | 90 | 1011.8 |
| 20260505022621 | 8 | 325 | 4.8 | 11.3 | 0.05 | 0.43 | 0.43 | 90 | 1011.8 |
| 20260505022119 | 8 | 14 | 3.2 | 11.3 | 0.05 | 0.43 | 0.43 | 90 | 1011.8 |
| 20260505021620 | 8 | 20 | 3.2 | 6.4 | 0.05 | 0.43 | 0.43 | 90 | 1011.9 |
| 20260505021119 | 8 | 9 | 3.2 | 8.0 | 0.05 | 0.43 | 0.43 | 90 | 1011.9 |
| 20260505020621 | 8 | 37 | 3.2 | 11.3 | 0.05 | 0.43 | 0.43 | 90 | 1011.9 |
| 20260505020115 | 8 | 35 | 4.8 | 11.3 | 0.05 | 0.43 | 0.43 | 90 | 1011.9 |
| 20260505015103 | 8 | 12 | 4.8 | 12.9 | 0.00 | 0.38 | 0.41 | 90 | 1011.9 |
| 20260505014557 | 8 | 19 | 8.0 | 16.1 | 0.00 | 0.38 | 0.38 | 90 | 1012.0 |
| 20260505014051 | 8 | 30 | 8.0 | 16.1 | 0.00 | 0.38 | 0.38 | 89 | 1012.0 |
| 20260505013545 | 8 | 356 | 6.4 | 16.1 | 0.03 | 0.38 | 0.38 | 90 | 1012.0 |
| 20260505013040 | 8 | 26 | 4.8 | 14.5 | 0.03 | 0.38 | 0.38 | 90 | 1011.9 |
| 20260505012534 | 8 | 58 | 4.8 | 14.5 | 0.03 | 0.38 | 0.38 | 90 | 1012.0 |
| 20260505012026 | 8 | 26 | 4.8 | 12.9 | 0.05 | 0.38 | 0.38 | 90 | 1012.1 |
| 20260505011522 | 8 | 10 | 4.8 | 14.5 | 0.05 | 0.38 | 0.38 | 90 | 1012.1 |
| 20260505011014 | 8 | 14 | 4.8 | 14.5 | 0.05 | 0.38 | 0.38 | 90 | 1012.1 |
| 20260505010508 | 8 | 40 | 6.4 | 12.9 | 0.05 | 0.38 | 0.38 | 90 | 1012.1 |
| 20260505010003 | 8 | 355 | 6.4 | 12.9 | 0.05 | 0.38 | 0.38 | 90 | 1012.2 |
| 20260505005457 | 8 | 14 | 8.0 | 17.7 | 0.08 | 0.38 | 0.38 | 89 | 1012.2 |
| 20260505004951 | 8 | 22 | 6.4 | 17.7 | 0.10 | 0.38 | 0.38 | 89 | 1012.2 |
| 20260505004445 | 8 | 332 | 6.4 | 14.5 | 0.13 | 0.38 | 0.38 | 89 | 1012.2 |
| 20260505003939 | 8 | 25 | 6.4 | 14.5 | 0.15 | 0.38 | 0.38 | 89 | 1012.2 |
| 20260505003433 | 8 | 10 | 6.4 | 14.5 | 0.20 | 0.36 | 0.36 | 89 | 1012.2 |
| 20260505002927 | 8 | 41 | 6.4 | 16.1 | 0.23 | 0.36 | 0.36 | 89 | 1012.2 |